This is the latest recevied weather packets stored in our database for station/object DC4AT. If no packets are shown the sender has not sent any weather packets the latest 10 day(s).
| Time | Temp. | Humidity | Pressure | Rain* | Wind** | Luminosity | Snow |
|---|---|---|---|---|---|---|---|
| 1777745622 | 20° C | 51% | 1015.1 hPa | 0 mm | - | 28 W/m² | - |
| 1777745022 | 20.56° C | 51% | 1015.1 hPa | 0 mm | - | 53 W/m² | - |
| 1777744422 | 21.11° C | 52% | 1015.2 hPa | 0 mm | - | 51 W/m² | - |
| 1777743822 | 22.22° C | 49% | 1015.2 hPa | 0 mm | - | 79 W/m² | - |
| 1777743222 | 22.78° C | 47% | 1015.1 hPa | 0 mm | - | 70 W/m² | - |
| 1777742622 | 23.33° C | 45% | 1015.3 hPa | 0 mm | - | 120 W/m² | - |
| 1777742022 | 23.89° C | 42% | 1015.3 hPa | 0 mm | - | 141 W/m² | - |
| 1777741422 | 24.44° C | 38% | 1015.4 hPa | 0 mm | - | 134 W/m² | - |
| 1777740822 | 25° C | 35% | 1015.4 hPa | 0 mm | - | 137 W/m² | - |
| 1777740222 | 25° C | 38% | 1015.6 hPa | 0 mm | - | 139 W/m² | - |
| 1777739622 | 25° C | 33% | 1015.6 hPa | 0 mm | - | 158 W/m² | - |
| 1777739022 | 25° C | 30% | 1015.8 hPa | 0 mm | - | 211 W/m² | - |
| 1777738422 | 25° C | 32% | 1016 hPa | 0 mm | - | 250 W/m² | - |
| 1777737822 | 25° C | 31% | 1016 hPa | 0 mm | - | 202 W/m² | - |
| 1777737222 | 25° C | 30% | 1016.2 hPa | 0 mm | - | 237 W/m² | - |
| 1777736622 | 25° C | 33% | 1016.3 hPa | 0 mm | - | 246 W/m² | - |
| 1777736022 | 25.56° C | 33% | 1016.3 hPa | 0 mm | - | 162 W/m² | - |
| 1777735423 | 25.56° C | 30% | 1016.5 hPa | 0 mm | - | 288 W/m² | - |
| 1777734822 | 25.56° C | 31% | 1016.5 hPa | 0 mm | - | 272 W/m² | - |
| 1777734223 | 25.56° C | 31% | 1016.6 hPa | 0 mm | - | 406 W/m² | - |
| 1777733623 | 25.56° C | 32% | 1016.7 hPa | 0 mm | - | 452 W/m² | - |
| 1777733023 | 25.56° C | 32% | 1016.8 hPa | 0 mm | - | 410 W/m² | - |
| 1777732423 | 25.56° C | 32% | 1016.9 hPa | 0 mm | - | 438 W/m² | - |
| 1777731823 | 25.56° C | 31% | 1017 hPa | 0 mm | - | 527 W/m² | - |
| 1777731223 | 25.56° C | 32% | 1017 hPa | 0 mm | - | 545 W/m² | - |
* Rain latest hour (hover to see other rain measurements)
** Current wind speed in m/s (hover to see current wind gust speed)